sat.trackr.live / text

‹ back to catalog

ONEWEB-0156

NORAD 48052 · 2021-025L

PAYLOAD ACTIVE UNKNOWN

§ Identity

Operator
Country
UK
Launch date
2021-03-25
Launch site
VOSTO
Launch vehicle
Mass (kg)
RCS (m²)

Purposes: comms

External: N2YO · Heavens-Above · Gunter

§ Orbital elements

Epoch: 2026-05-25T04:31:43.383648Z

Period
109.63 min
Inclination
87.8951°
Eccentricity
0.0001813
Mean motion
13.13468694 rev/d
Perigee alt
1,208.4 km
Apogee alt
1,211.1 km
Semi-major
7,587.9 km
B*
7.2761e-4
RAAN
324.7990°
Arg perigee
96.1196°
Mean anomaly
264.0140°
Rev number
25,055

§ Raw data

ONEWEB-01561 48052U 21025L   26145.18869657  .00000278  00000+0  72761-3 0  99992 48052  87.8951 324.7990 0001813  96.1196 264.0140 13.13468694250557

JSON: /api/v1/satellites/48052 · /tle

For live sub-satellite position, see the globe view (requires WebGL).

§ Visibility from observer

Set your observer location to see the next 7 days of passes ≥ 10°. The values pass through the URL so the page stays shareable.

No JS? Fill the form by hand. The geolocation button needs JavaScript.